Time,TemperatureF,DewpointF,PressureIn,WindDirection,WindDirectionDegrees,WindSpeedMPH,WindSpeedGustMPH,Humidity,HourlyPrecipIn,Conditions,Clouds,dailyrainin,SolarRadiationWatts/m^2,SoftwareType,DateUTC
2013-09-12 00:01:00,76.0,74.5,29.99,SW,231,1.0,2.0,95,-0.19,,,0.00,0000,Weather View 32 v70,2013-09-12 04:01:00,
2013-09-12 00:06:00,76.0,74.5,29.99,SW,231,0.0,2.0,95,-0.19,,,0.00,0000,Weather View 32 v70,2013-09-12 04:06:00,
2013-09-12 00:11:00,76.0,74.5,29.99,North,6,2.0,2.0,95,-0.19,,,0.00,0000,Weather View 32 v70,2013-09-12 04:11:00,
2013-09-12 00:16:00,76.0,74.8,29.99,NNW,343,1.0,3.0,96,-0.19,,,0.00,0000,Weather View 32 v70,2013-09-12 04:16:00,
2013-09-12 00:21:00,77.0,75.8,29.99,North,6,1.0,4.0,96,-0.19,,,0.00,0000,Weather View 32 v70,2013-09-12 04:21:00,
2013-09-12 00:26:00,77.0,75.8,29.99,WNW,298,2.0,4.0,96,-0.19,,,0.00,0000,Weather View 32 v70,2013-09-12 04:26:00,
2013-09-12 00:31:00,77.0,75.8,29.98,East,96,1.0,4.0,96,-0.19,,,0.00,0000,Weather View 32 v70,2013-09-12 04:31:00,
2013-09-12 00:36:00,77.0,75.4,29.98,NW,321,1.0,4.0,95,-0.19,,,0.00,0000,Weather View 32 v70,2013-09-12 04:36:00,
2013-09-12 00:41:00,77.0,75.4,29.98,SSW,208,0.0,4.0,95,-0.19,,,0.00,0000,Weather View 32 v70,2013-09-12 04:41:00,
2013-09-12 00:46:00,77.0,75.4,29.98,ENE,73,1.0,4.0,95,-0.19,,,0.00,0000,Weather View 32 v70,2013-09-12 04:46:00,
2013-09-12 00:51:00,77.0,75.4,29.98,ESE,118,1.0,4.0,95,-0.19,,,0.00,0000,Weather View 32 v70,2013-09-12 04:51:00,
2013-09-12 00:56:00,77.0,75.4,29.98,SSW,208,0.0,4.0,95,-0.19,,,0.00,0000,Weather View 32 v70,2013-09-12 04:56:00,
2013-09-12 01:01:00,76.0,74.5,29.97,South,186,1.0,4.0,95,0.00,,,0.00,0000,Weather View 32 v70,2013-09-12 05:01:00,
2013-09-12 01:06:00,76.0,74.5,29.97,SSW,208,1.0,4.0,95,0.00,,,0.00,0000,Weather View 32 v70,2013-09-12 05:06:00,
2013-09-12 01:11:00,76.0,74.5,29.97,SW,231,1.0,4.0,95,0.00,,,0.00,0000,Weather View 32 v70,2013-09-12 05:11:00,
2013-09-12 01:16:00,76.0,74.8,29.97,WSW,253,1.0,4.0,96,0.00,,,0.00,0000,Weather View 32 v70,2013-09-12 05:16:00,
2013-09-12 01:21:00,76.0,74.8,29.97,West,276,1.0,4.0,96,0.00,,,0.00,0000,Weather View 32 v70,2013-09-12 05:21:00,
2013-09-12 01:26:00,76.0,74.8,29.97,NW,321,1.0,4.0,96,0.00,,,0.00,0000,Weather View 32 v70,2013-09-12 05:26:00,
2013-09-12 01:31:00,77.0,76.1,29.96,NW,321,1.0,3.0,97,0.00,,,0.00,0000,Weather View 32 v70,2013-09-12 05:31:00,
2013-09-12 01:36:00,77.0,76.1,29.96,North,6,1.0,3.0,97,0.00,,,0.00,0000,Weather View 32 v70,2013-09-12 05:36:00,
2013-09-12 01:41:00,77.0,75.8,29.96,WNW,298,1.0,3.0,96,0.00,,,0.00,0000,Weather View 32 v70,2013-09-12 05:41:00,
2013-09-12 01:46:00,77.0,75.8,29.97,NW,321,1.0,3.0,96,0.00,,,0.00,0000,Weather View 32 v70,2013-09-12 05:46:00,
2013-09-12 01:51:00,77.0,76.1,29.96,NE,51,1.0,3.0,97,0.00,,,0.00,0000,Weather View 32 v70,2013-09-12 05:51:00,
2013-09-12 01:56:00,77.0,75.8,29.97,North,6,0.0,3.0,96,0.00,,,0.00,0000,Weather View 32 v70,2013-09-12 05:56:00,
2013-09-12 02:01:00,77.0,75.8,29.96,NNE,28,0.0,3.0,96,0.00,,,0.00,0000,Weather View 32 v70,2013-09-12 06:01:00,
2013-09-12 02:06:00,77.0,75.4,29.96,South,186,1.0,3.0,95,0.00,,,0.00,0000,Weather View 32 v70,2013-09-12 06:06:00,
2013-09-12 02:11:00,77.0,75.4,29.96,South,186,1.0,3.0,95,0.00,,,0.00,0000,Weather View 32 v70,2013-09-12 06:11:00,
2013-09-12 02:16:00,76.0,74.8,29.96,WSW,253,0.0,3.0,96,0.00,,,0.00,0000,Weather View 32 v70,2013-09-12 06:16:00,
2013-09-12 02:21:00,76.0,74.8,29.96,East,96,1.0,3.0,96,0.00,,,0.00,0000,Weather View 32 v70,2013-09-12 06:21:00,
2013-09-12 02:26:00,76.0,74.8,29.96,North,6,1.0,3.0,96,0.00,,,0.00,0000,Weather View 32 v70,2013-09-12 06:26:00,
2013-09-12 02:31:00,77.0,76.1,29.96,NNW,343,1.0,3.0,97,0.00,,,0.00,0000,Weather View 32 v70,2013-09-12 06:31:00,
2013-09-12 02:36:00,77.0,76.1,29.95,WNW,298,2.0,3.0,97,0.00,,,0.00,0000,Weather View 32 v70,2013-09-12 06:36:00,
2013-09-12 02:41:00,77.0,76.1,29.96,West,276,1.0,3.0,97,0.00,,,0.00,0000,Weather View 32 v70,2013-09-12 06:41:00,
2013-09-12 02:46:00,77.0,76.1,29.95,West,276,1.0,3.0,97,0.00,,,0.00,0000,Weather View 32 v70,2013-09-12 06:46:00,
2013-09-12 02:51:00,77.0,76.1,29.96,West,276,1.0,3.0,97,0.00,,,0.00,0000,Weather View 32 v70,2013-09-12 06:51:00,
2013-09-12 02:56:00,77.0,76.1,29.96,WNW,298,1.0,3.0,97,0.00,,,0.00,0000,Weather View 32 v70,2013-09-12 06:56:00,
2013-09-12 03:01:00,77.0,76.1,29.95,North,6,1.0,3.0,97,0.00,,,0.00,0000,Weather View 32 v70,2013-09-12 07:01:00,
2013-09-12 03:06:00,77.0,76.1,29.96,North,6,2.0,3.0,97,0.00,,,0.00,0000,Weather View 32 v70,2013-09-12 07:06:00,
2013-09-12 03:11:00,77.0,76.1,29.96,North,6,2.0,3.0,97,0.00,,,0.00,0000,Weather View 32 v70,2013-09-12 07:11:00,
2013-09-12 03:16:00,77.0,76.1,29.95,NNW,343,2.0,3.0,97,0.00,,,0.00,0000,Weather View 32 v70,2013-09-12 07:16:00,
2013-09-12 03:21:00,77.0,76.1,29.95,WNW,298,2.0,3.0,97,0.00,,,0.00,0000,Weather View 32 v70,2013-09-12 07:21:00,
2013-09-12 03:26:00,77.0,76.1,29.95,NNW,343,1.0,4.0,97,0.00,,,0.00,0000,Weather View 32 v70,2013-09-12 07:26:00,
2013-09-12 03:31:00,77.0,76.1,29.95,NW,321,3.0,4.0,97,0.00,,,0.00,0000,Weather View 32 v70,2013-09-12 07:31:00,
2013-09-12 03:36:00,77.0,76.1,29.95,NNW,343,2.0,4.0,97,0.00,,,0.00,0000,Weather View 32 v70,2013-09-12 07:36:00,
2013-09-12 03:41:00,77.0,76.1,29.95,WNW,298,2.0,4.0,97,0.00,,,0.00,0000,Weather View 32 v70,2013-09-12 07:41:00,
2013-09-12 03:46:00,77.0,76.1,29.95,NNE,28,3.0,4.0,97,0.00,,,0.00,0000,Weather View 32 v70,2013-09-12 07:46:00,
2013-09-12 03:51:00,77.0,76.1,29.95,West,276,2.0,4.0,97,0.00,,,0.00,0000,Weather View 32 v70,2013-09-12 07:51:00,
2013-09-12 03:56:00,77.0,76.1,29.95,NNW,343,2.0,4.0,97,0.00,,,0.00,0000,Weather View 32 v70,2013-09-12 07:56:00,
2013-09-12 04:01:00,77.0,76.1,29.95,NNW,343,1.0,4.0,97,0.00,,,0.00,0000,Weather View 32 v70,2013-09-12 08:01:00,
2013-09-12 04:06:00,77.0,76.1,29.94,WSW,253,1.0,4.0,97,0.00,,,0.00,0000,Weather View 32 v70,2013-09-12 08:06:00,
2013-09-12 04:11:00,77.0,76.1,29.94,NW,321,2.0,4.0,97,0.00,,,0.00,0000,Weather View 32 v70,2013-09-12 08:11:00,
2013-09-12 04:16:00,77.0,76.1,29.94,NNW,343,2.0,4.0,97,0.00,,,0.00,0000,Weather View 32 v70,2013-09-12 08:16:00,
2013-09-12 04:21:00,77.0,76.1,29.94,NW,321,1.0,4.0,97,0.00,,,0.00,0000,Weather View 32 v70,2013-09-12 08:21:00,
2013-09-12 04:26:00,77.0,76.1,29.94,NNE,28,2.0,4.0,97,0.00,,,0.00,0000,Weather View 32 v70,2013-09-12 08:26:00,
2013-09-12 04:31:00,77.0,76.1,29.94,NNW,343,3.0,4.0,97,0.00,,,0.00,0000,Weather View 32 v70,2013-09-12 08:31:00,
2013-09-12 04:36:00,77.0,76.1,29.94,NNW,343,1.0,4.0,97,0.00,,,0.00,0000,Weather View 32 v70,2013-09-12 08:36:00,
2013-09-12 04:41:00,76.0,75.1,29.94,NW,321,3.0,5.0,97,0.00,,,0.00,0000,Weather View 32 v70,2013-09-12 08:41:00,
2013-09-12 04:46:00,76.0,75.1,29.94,WNW,298,2.0,5.0,97,0.00,,,0.00,0000,Weather View 32 v70,2013-09-12 08:46:00,
2013-09-12 04:51:00,76.0,75.1,29.94,NW,321,1.0,5.0,97,0.00,,,0.00,0000,Weather View 32 v70,2013-09-12 08:51:00,
2013-09-12 04:56:00,76.0,75.1,29.94,NNW,343,3.0,5.0,97,0.00,,,0.00,0000,Weather View 32 v70,2013-09-12 08:56:00,
2013-09-12 05:01:00,76.0,75.1,29.94,NW,321,3.0,5.0,97,0.00,,,0.00,0000,Weather View 32 v70,2013-09-12 09:01:00,
2013-09-12 05:06:00,76.0,75.1,29.94,NW,321,3.0,5.0,97,0.00,,,0.00,0000,Weather View 32 v70,2013-09-12 09:06:00,
2013-09-12 05:11:00,76.0,75.1,29.94,NNW,343,2.0,5.0,97,0.00,,,0.00,0000,Weather View 32 v70,2013-09-12 09:11:00,
2013-09-12 05:16:00,76.0,75.1,29.94,NW,321,1.0,5.0,97,0.00,,,0.00,0000,Weather View 32 v70,2013-09-12 09:16:00,
2013-09-12 05:23:00,76.0,75.1,29.94,WNW,298,1.0,5.0,97,0.00,,,0.00,0000,Weather View 32 v70,2013-09-12 09:23:00,
2013-09-12 05:28:00,76.0,75.1,29.94,North,6,2.0,5.0,97,0.00,,,0.00,0000,Weather View 32 v70,2013-09-12 09:28:00,
2013-09-12 05:33:00,76.0,75.1,29.94,NNW,343,1.0,5.0,97,0.00,,,0.00,0000,Weather View 32 v70,2013-09-12 09:33:00,
2013-09-12 05:38:00,76.0,75.1,29.94,WNW,298,1.0,5.0,97,0.00,,,0.00,0000,Weather View 32 v70,2013-09-12 09:38:00,
2013-09-12 05:43:00,76.0,75.1,29.94,WNW,298,1.0,5.0,97,0.00,,,0.00,0000,Weather View 32 v70,2013-09-12 09:43:00,
2013-09-12 05:48:00,76.0,75.1,29.94,SSW,208,2.0,5.0,97,0.00,,,0.00,0000,Weather View 32 v70,2013-09-12 09:48:00,
2013-09-12 05:53:00,75.0,74.1,29.94,SSW,208,2.0,5.0,97,0.00,,,0.00,0000,Weather View 32 v70,2013-09-12 09:53:00,
2013-09-12 05:58:00,75.0,74.1,29.94,WSW,253,1.0,5.0,97,0.00,,,0.00,0000,Weather View 32 v70,2013-09-12 09:58:00,
2013-09-12 06:03:00,75.0,74.1,29.94,WSW,253,2.0,4.0,97,0.00,,,0.00,0000,Weather View 32 v70,2013-09-12 10:03:00,
2013-09-12 06:08:00,75.0,74.4,29.94,West,276,2.0,4.0,98,0.00,,,0.00,0000,Weather View 32 v70,2013-09-12 10:08:00,
2013-09-12 06:13:00,75.0,74.4,29.94,WNW,298,1.0,4.0,98,0.00,,,0.00,0000,Weather View 32 v70,2013-09-12 10:13:00,
2013-09-12 06:18:00,75.0,74.4,29.94,NW,321,1.0,4.0,98,0.00,,,0.00,0000,Weather View 32 v70,2013-09-12 10:18:00,
2013-09-12 06:23:00,75.0,74.4,29.94,NNW,343,2.0,4.0,98,0.00,,,0.00,0000,Weather View 32 v70,2013-09-12 10:23:00,
2013-09-12 06:28:00,75.0,74.4,29.94,NNW,343,3.0,4.0,98,0.00,,,0.00,0000,Weather View 32 v70,2013-09-12 10:28:00,
2013-09-12 06:33:00,76.0,75.4,29.94,North,6,1.0,4.0,98,0.00,,,0.00,0000,Weather View 32 v70,2013-09-12 10:33:00,
2013-09-12 06:38:00,76.0,75.4,29.94,NNW,343,1.0,4.0,98,0.00,,,0.00,0000,Weather View 32 v70,2013-09-12 10:38:00,
2013-09-12 06:43:00,76.0,75.4,29.94,NNW,343,3.0,4.0,98,0.00,,,0.00,0000,Weather View 32 v70,2013-09-12 10:43:00,
2013-09-12 06:48:00,76.0,75.1,29.94,NNE,28,2.0,4.0,97,0.00,,,0.00,0000,Weather View 32 v70,2013-09-12 10:48:00,
2013-09-12 06:53:00,76.0,75.1,29.94,East,96,1.0,4.0,97,0.00,,,0.00,0000,Weather View 32 v70,2013-09-12 10:53:00,
2013-09-12 06:58:00,76.0,75.1,29.94,WNW,298,1.0,4.0,97,0.00,,,0.00,0000,Weather View 32 v70,2013-09-12 10:58:00,
2013-09-12 07:03:00,75.0,74.1,29.95,NW,321,2.0,4.0,97,0.00,,,0.00,0000,Weather View 32 v70,2013-09-12 11:03:00,
2013-09-12 07:08:00,75.0,74.1,29.95,NW,321,2.0,4.0,97,0.00,,,0.00,0000,Weather View 32 v70,2013-09-12 11:08:00,
2013-09-12 07:13:00,75.0,74.1,29.95,NNW,343,3.0,5.0,97,0.00,,,0.00,0000,Weather View 32 v70,2013-09-12 11:13:00,
2013-09-12 07:18:00,75.0,74.4,29.95,NNW,343,3.0,5.0,98,0.00,,,0.00,0010,Weather View 32 v70,2013-09-12 11:18:00,
2013-09-12 07:23:00,75.0,74.4,29.95,NW,321,1.0,5.0,98,0.00,,,0.00,0020,Weather View 32 v70,2013-09-12 11:23:00,
2013-09-12 07:28:00,75.0,74.4,29.95,ENE,73,2.0,5.0,98,0.00,,,0.00,0030,Weather View 32 v70,2013-09-12 11:28:00,
2013-09-12 07:33:00,75.0,74.4,29.95,NE,51,1.0,5.0,98,0.00,,,0.00,0030,Weather View 32 v70,2013-09-12 11:33:00,
2013-09-12 07:38:00,76.0,75.4,29.95,North,6,2.0,5.0,98,0.00,,,0.00,0040,Weather View 32 v70,2013-09-12 11:38:00,
2013-09-12 07:43:00,76.0,75.1,29.95,WNW,298,2.0,5.0,97,0.00,,,0.00,0050,Weather View 32 v70,2013-09-12 11:43:00,
2013-09-12 07:48:00,76.0,74.8,29.96,NNW,343,3.0,5.0,96,0.00,,,0.00,0110,Weather View 32 v70,2013-09-12 11:48:00,
2013-09-12 07:53:00,76.0,74.8,29.96,North,6,2.0,5.0,96,0.00,,,0.00,0040,Weather View 32 v70,2013-09-12 11:53:00,
2013-09-12 07:58:00,76.0,74.8,29.96,NE,51,3.0,5.0,96,0.00,,,0.00,0130,Weather View 32 v70,2013-09-12 11:58:00,
2013-09-12 08:03:00,76.0,74.5,29.95,NE,51,3.0,5.0,95,0.00,,,0.00,0150,Weather View 32 v70,2013-09-12 12:03:00,
2013-09-12 08:08:00,76.0,74.1,29.96,North,6,3.0,6.0,94,0.00,,,0.00,0160,Weather View 32 v70,2013-09-12 12:08:00,
2013-09-12 08:13:00,77.0,75.1,29.96,North,6,2.0,6.0,94,0.00,,,0.00,0180,Weather View 32 v70,2013-09-12 12:13:00,
2013-09-12 08:18:00,77.0,74.5,29.96,NW,321,2.0,6.0,92,0.00,,,0.00,0190,Weather View 32 v70,2013-09-12 12:18:00,
2013-09-12 08:23:00,78.0,75.5,29.96,North,6,3.0,6.0,92,0.00,,,0.00,0200,Weather View 32 v70,2013-09-12 12:23:00,
2013-09-12 08:28:00,78.0,75.1,29.96,NNW,343,1.0,6.0,91,0.00,,,0.00,0210,Weather View 32 v70,2013-09-12 12:28:00,
2013-09-12 08:33:00,78.0,75.1,29.96,NE,51,3.0,6.0,91,0.00,,,0.00,0220,Weather View 32 v70,2013-09-12 12:33:00,
2013-09-12 08:38:00,79.0,75.5,29.96,NE,51,1.0,6.0,89,0.00,,,0.00,0230,Weather View 32 v70,2013-09-12 12:38:00,
2013-09-12 08:43:00,79.0,75.5,29.96,SW,231,1.0,6.0,89,0.00,,,0.00,0240,Weather View 32 v70,2013-09-12 12:43:00,
2013-09-12 08:48:00,80.0,76.1,29.96,North,6,1.0,6.0,88,0.00,,,0.00,0260,Weather View 32 v70,2013-09-12 12:48:00,
2013-09-12 08:53:00,79.0,74.4,29.96,NE,51,3.0,6.0,86,0.00,,,0.00,0270,Weather View 32 v70,2013-09-12 12:53:00,
2013-09-12 08:58:00,80.0,75.4,29.96,WNW,298,3.0,6.0,86,0.00,,,0.00,0280,Weather View 32 v70,2013-09-12 12:58:00,
2013-09-12 09:03:00,80.0,75.1,29.96,North,6,2.0,6.0,85,0.00,,,0.00,0290,Weather View 32 v70,2013-09-12 13:03:00,
2013-09-12 09:08:00,80.0,74.7,29.95,NNE,28,2.0,6.0,84,0.00,,,0.00,0300,Weather View 32 v70,2013-09-12 13:08:00,
2013-09-12 09:13:00,81.0,75.3,29.95,West,276,3.0,6.0,83,0.00,,,0.00,0310,Weather View 32 v70,2013-09-12 13:13:00,
2013-09-12 09:18:00,81.0,75.3,29.96,NNW,343,2.0,6.0,83,0.00,,,0.00,0320,Weather View 32 v70,2013-09-12 13:18:00,
2013-09-12 09:23:00,81.0,75.0,29.96,NNE,28,3.0,6.0,82,0.00,,,0.00,0330,Weather View 32 v70,2013-09-12 13:23:00,
2013-09-12 09:28:00,81.0,75.0,29.96,NNE,28,3.0,6.0,82,0.00,,,0.00,0350,Weather View 32 v70,2013-09-12 13:28:00,
2013-09-12 09:33:00,82.0,75.2,29.96,North,6,3.0,6.0,80,0.00,,,0.00,0370,Weather View 32 v70,2013-09-12 13:33:00,
2013-09-12 09:38:00,82.0,75.6,29.96,East,96,1.0,6.0,81,0.00,,,0.00,0410,Weather View 32 v70,2013-09-12 13:38:00,
2013-09-12 09:43:00,82.0,74.4,29.96,North,6,5.0,6.0,78,0.00,,,0.00,0420,Weather View 32 v70,2013-09-12 13:43:00,
2013-09-12 09:48:00,83.0,75.8,29.96,NNE,28,5.0,6.0,79,0.00,,,0.00,0420,Weather View 32 v70,2013-09-12 13:48:00,
2013-09-12 09:53:00,82.0,74.4,29.96,ENE,73,3.0,6.0,78,0.00,,,0.00,0420,Weather View 32 v70,2013-09-12 13:53:00,
2013-09-12 09:58:00,82.0,74.4,29.96,NE,51,3.0,6.0,78,0.00,,,0.00,0420,Weather View 32 v70,2013-09-12 13:58:00,
2013-09-12 10:03:00,83.0,75.4,29.96,East,96,5.0,6.0,78,0.00,,,0.00,0420,Weather View 32 v70,2013-09-12 14:03:00,
2013-09-12 10:08:00,83.0,74.6,29.96,NE,51,2.0,6.0,76,0.00,,,0.00,0430,Weather View 32 v70,2013-09-12 14:08:00,
2013-09-12 10:13:00,84.0,74.8,29.96,East,96,3.0,6.0,74,0.00,,,0.00,0440,Weather View 32 v70,2013-09-12 14:13:00,
2013-09-12 10:18:00,84.0,74.8,29.95,North,6,3.0,6.0,74,0.00,,,0.00,0450,Weather View 32 v70,2013-09-12 14:18:00,
2013-09-12 10:23:00,84.0,74.8,29.95,North,6,2.0,6.0,74,0.00,,,0.00,0460,Weather View 32 v70,2013-09-12 14:23:00,
2013-09-12 10:28:00,84.0,74.0,29.95,NE,51,1.0,6.0,72,0.00,,,0.00,0480,Weather View 32 v70,2013-09-12 14:28:00,
2013-09-12 10:33:00,85.0,74.1,29.95,NNE,28,5.0,6.0,70,0.00,,,0.00,0150,Weather View 32 v70,2013-09-12 14:33:00,
2013-09-12 10:38:00,84.0,73.1,29.95,North,6,3.0,6.0,70,0.00,,,0.00,0530,Weather View 32 v70,2013-09-12 14:38:00,
2013-09-12 10:43:00,84.0,73.1,29.95,NNE,28,3.0,7.0,70,0.00,,,0.00,0520,Weather View 32 v70,2013-09-12 14:43:00,
2013-09-12 10:48:00,84.0,72.3,29.95,NNE,28,6.0,7.0,68,0.00,,,0.00,0530,Weather View 32 v70,2013-09-12 14:48:00,
2013-09-12 10:53:00,84.0,72.7,29.95,ENE,73,3.0,7.0,69,0.00,,,0.00,0550,Weather View 32 v70,2013-09-12 14:53:00,
2013-09-12 10:58:00,85.0,73.2,29.95,NE,51,3.0,7.0,68,0.00,,,0.00,0560,Weather View 32 v70,2013-09-12 14:58:00,
2013-09-12 11:03:00,85.0,73.6,29.95,ENE,73,3.0,7.0,69,0.00,,,0.00,0550,Weather View 32 v70,2013-09-12 15:03:00,
2013-09-12 11:08:00,86.0,73.7,29.95,NE,51,1.0,7.0,67,0.00,,,0.00,0570,Weather View 32 v70,2013-09-12 15:08:00,
2013-09-12 11:13:00,85.0,72.8,29.95,West,276,3.0,7.0,67,0.00,,,0.00,0520,Weather View 32 v70,2013-09-12 15:13:00,
2013-09-12 11:18:00,85.0,73.2,29.95,NW,321,2.0,7.0,68,0.00,,,0.00,0550,Weather View 32 v70,2013-09-12 15:18:00,
2013-09-12 11:23:00,85.0,73.2,29.95,NNE,28,4.0,7.0,68,0.00,,,0.00,0490,Weather View 32 v70,2013-09-12 15:23:00,
2013-09-12 11:28:00,85.0,72.3,29.95,NNW,343,2.0,7.0,66,0.00,,,0.00,0560,Weather View 32 v70,2013-09-12 15:28:00,
2013-09-12 11:33:00,85.0,72.3,29.95,ENE,73,4.0,7.0,66,0.00,,,0.00,0550,Weather View 32 v70,2013-09-12 15:33:00,
2013-09-12 11:38:00,86.0,73.3,29.95,North,6,4.0,7.0,66,0.00,,,0.00,0560,Weather View 32 v70,2013-09-12 15:38:00,
2013-09-12 11:43:00,86.0,72.3,29.95,SE,141,4.0,6.0,64,0.00,,,0.00,0590,Weather View 32 v70,2013-09-12 15:43:00,
2013-09-12 11:48:00,86.0,71.9,29.95,ENE,73,5.0,8.0,63,0.00,,,0.00,0600,Weather View 32 v70,2013-09-12 15:48:00,
2013-09-12 11:53:00,85.0,70.9,29.95,SE,141,5.0,8.0,63,0.00,,,0.00,0610,Weather View 32 v70,2013-09-12 15:53:00,
2013-09-12 11:58:00,86.0,71.9,29.95,SSW,208,4.0,8.0,63,0.00,,,0.00,0620,Weather View 32 v70,2013-09-12 15:58:00,
2013-09-12 12:03:00,88.0,73.8,29.94,SSE,163,1.0,8.0,63,0.00,,,0.00,0630,Weather View 32 v70,2013-09-12 16:03:00,
2013-09-12 12:08:00,88.0,71.8,29.94,NNW,343,2.0,8.0,59,0.00,,,0.00,0630,Weather View 32 v70,2013-09-12 16:08:00,
2013-09-12 12:13:00,88.0,71.8,29.94,North,6,3.0,8.0,59,0.00,,,0.00,0660,Weather View 32 v70,2013-09-12 16:13:00,
2013-09-12 12:18:00,88.0,72.3,29.94,WNW,298,3.0,8.0,60,0.00,,,0.00,0700,Weather View 32 v70,2013-09-12 16:18:00,
2013-09-12 12:23:00,88.0,71.8,29.94,NW,321,1.0,8.0,59,0.00,,,0.00,0700,Weather View 32 v70,2013-09-12 16:23:00,
2013-09-12 12:28:00,88.0,72.3,29.93,West,276,1.0,8.0,60,0.00,,,0.00,0690,Weather View 32 v70,2013-09-12 16:28:00,
2013-09-12 12:33:00,87.0,72.3,29.93,ESE,118,4.0,8.0,62,0.00,,,0.00,0670,Weather View 32 v70,2013-09-12 16:33:00,
2013-09-12 12:38:00,86.0,71.9,29.93,SSW,208,5.0,9.0,63,0.00,,,0.00,0700,Weather View 32 v70,2013-09-12 16:38:00,
2013-09-12 12:43:00,87.0,73.3,29.93,SE,141,5.0,9.0,64,0.00,,,0.00,0720,Weather View 32 v70,2013-09-12 16:43:00,
2013-09-12 12:48:00,86.0,71.4,29.93,ESE,118,5.0,10.0,62,0.00,,,0.00,0700,Weather View 32 v70,2013-09-12 16:48:00,
2013-09-12 12:53:00,86.0,71.9,29.92,ENE,73,4.0,10.0,63,0.00,,,0.00,0690,Weather View 32 v70,2013-09-12 16:53:00,
2013-09-12 12:58:00,87.0,72.8,29.92,SE,141,5.0,10.0,63,0.00,,,0.00,0680,Weather View 32 v70,2013-09-12 16:58:00,
2013-09-12 13:03:00,86.0,71.9,29.92,ESE,118,4.0,10.0,63,0.00,,,0.00,0680,Weather View 32 v70,2013-09-12 17:03:00,
2013-09-12 13:08:00,86.0,72.8,29.92,SSE,163,4.0,10.0,65,0.00,,,0.00,0690,Weather View 32 v70,2013-09-12 17:08:00,
2013-09-12 13:13:00,86.0,73.3,29.92,SSW,208,5.0,10.0,66,0.00,,,0.00,0690,Weather View 32 v70,2013-09-12 17:13:00,
2013-09-12 13:18:00,85.0,72.3,29.92,ESE,118,6.0,10.0,66,0.00,,,0.00,0680,Weather View 32 v70,2013-09-12 17:18:00,
2013-09-12 13:23:00,87.0,75.1,29.91,SW,231,4.0,10.0,68,0.00,,,0.00,0670,Weather View 32 v70,2013-09-12 17:23:00,
2013-09-12 13:28:00,86.0,73.3,29.91,SE,141,4.0,10.0,66,0.00,,,0.00,0670,Weather View 32 v70,2013-09-12 17:28:00,
2013-09-12 13:33:00,85.0,72.3,29.91,SE,141,6.0,10.0,66,0.00,,,0.00,0670,Weather View 32 v70,2013-09-12 17:33:00,
2013-09-12 13:38:00,86.0,73.7,29.91,ESE,118,5.0,10.0,67,0.00,,,0.00,0670,Weather View 32 v70,2013-09-12 17:38:00,
2013-09-12 13:43:00,86.0,73.3,29.91,SE,141,6.0,10.0,66,0.00,,,0.00,0670,Weather View 32 v70,2013-09-12 17:43:00,
2013-09-12 13:48:00,85.0,71.9,29.91,ESE,118,7.0,10.0,65,0.00,,,0.00,0670,Weather View 32 v70,2013-09-12 17:48:00,
2013-09-12 13:53:00,86.0,73.3,29.90,ESE,118,3.0,10.0,66,0.00,,,0.00,0660,Weather View 32 v70,2013-09-12 17:53:00,
2013-09-12 13:58:00,86.0,73.7,29.90,SSE,163,7.0,10.0,67,0.00,,,0.00,0670,Weather View 32 v70,2013-09-12 17:58:00,
2013-09-12 14:03:00,86.0,73.3,29.90,ESE,118,6.0,10.0,66,0.00,,,0.00,0660,Weather View 32 v70,2013-09-12 18:03:00,
2013-09-12 14:08:00,86.0,73.7,29.90,SSW,208,3.0,10.0,67,0.00,,,0.00,0660,Weather View 32 v70,2013-09-12 18:08:00,
2013-09-12 14:13:00,86.0,73.7,29.90,SSE,163,6.0,10.0,67,0.00,,,0.00,0650,Weather View 32 v70,2013-09-12 18:13:00,
2013-09-12 14:18:00,85.0,71.9,29.89,SE,141,9.0,10.0,65,0.00,,,0.00,0650,Weather View 32 v70,2013-09-12 18:18:00,
2013-09-12 14:23:00,85.0,72.3,29.89,ESE,118,5.0,10.0,66,0.00,,,0.00,0640,Weather View 32 v70,2013-09-12 18:23:00,
2013-09-12 14:28:00,85.0,73.6,29.89,SSE,163,3.0,11.0,69,0.00,,,0.00,0650,Weather View 32 v70,2013-09-12 18:28:00,
2013-09-12 14:33:00,86.0,74.6,29.89,SSE,163,3.0,11.0,69,0.00,,,0.00,0650,Weather View 32 v70,2013-09-12 18:33:00,
2013-09-12 14:38:00,85.0,72.3,29.89,ESE,118,5.0,11.0,66,0.00,,,0.00,0640,Weather View 32 v70,2013-09-12 18:38:00,
2013-09-12 14:43:00,86.0,74.6,29.88,SSW,208,7.0,11.0,69,0.00,,,0.00,0630,Weather View 32 v70,2013-09-12 18:43:00,
2013-09-12 14:48:00,85.0,72.8,29.88,SSE,163,8.0,11.0,67,0.00,,,0.00,0630,Weather View 32 v70,2013-09-12 18:48:00,
2013-09-12 14:53:00,85.0,72.8,29.88,SSE,163,5.0,11.0,67,0.00,,,0.00,0620,Weather View 32 v70,2013-09-12 18:53:00,
2013-09-12 14:58:00,86.0,73.7,29.87,SSW,208,6.0,11.0,67,0.00,,,0.00,0620,Weather View 32 v70,2013-09-12 18:58:00,
2013-09-12 15:03:00,85.0,71.4,29.87,South,186,3.0,11.0,64,0.00,,,0.00,0610,Weather View 32 v70,2013-09-12 19:03:00,
2013-09-12 15:08:00,85.0,71.4,29.87,SW,231,2.0,11.0,64,0.00,,,0.00,0610,Weather View 32 v70,2013-09-12 19:08:00,
2013-09-12 15:13:00,85.0,71.9,29.86,ESE,118,6.0,11.0,65,0.00,,,0.00,0600,Weather View 32 v70,2013-09-12 19:13:00,
2013-09-12 15:18:00,85.0,72.3,29.86,SSW,208,8.0,11.0,66,0.00,,,0.00,0590,Weather View 32 v70,2013-09-12 19:18:00,
2013-09-12 15:23:00,85.0,72.3,29.86,ESE,118,5.0,11.0,66,0.00,,,0.00,0580,Weather View 32 v70,2013-09-12 19:23:00,
2013-09-12 15:28:00,85.0,72.3,29.86,SE,141,5.0,11.0,66,0.00,,,0.00,0580,Weather View 32 v70,2013-09-12 19:28:00,
2013-09-12 15:33:00,86.0,73.3,29.86,ESE,118,6.0,11.0,66,0.00,,,0.00,0570,Weather View 32 v70,2013-09-12 19:33:00,
2013-09-12 15:38:00,85.0,70.9,29.85,SE,141,2.0,11.0,63,0.00,,,0.00,0560,Weather View 32 v70,2013-09-12 19:38:00,
2013-09-12 15:43:00,85.0,71.4,29.85,ESE,118,5.0,11.0,64,0.00,,,0.00,0560,Weather View 32 v70,2013-09-12 19:43:00,
2013-09-12 15:48:00,85.0,70.9,29.85,SSW,208,3.0,11.0,63,0.00,,,0.00,0550,Weather View 32 v70,2013-09-12 19:48:00,
2013-09-12 15:53:00,85.0,70.9,29.84,South,186,6.0,11.0,63,0.00,,,0.00,0540,Weather View 32 v70,2013-09-12 19:53:00,
2013-09-12 15:58:00,85.0,70.5,29.84,ESE,118,8.0,11.0,62,0.00,,,0.00,0540,Weather View 32 v70,2013-09-12 19:58:00,
2013-09-12 16:03:00,85.0,70.5,29.84,South,186,6.0,11.0,62,0.00,,,0.00,0530,Weather View 32 v70,2013-09-12 20:03:00,
2013-09-12 16:08:00,85.0,70.0,29.84,ESE,118,6.0,10.0,61,0.00,,,0.00,0520,Weather View 32 v70,2013-09-12 20:08:00,
2013-09-12 16:13:00,86.0,70.9,29.84,WSW,253,3.0,10.0,61,0.00,,,0.00,0510,Weather View 32 v70,2013-09-12 20:13:00,
2013-09-12 16:18:00,86.0,70.9,29.83,SSE,163,5.0,10.0,61,0.00,,,0.00,0500,Weather View 32 v70,2013-09-12 20:18:00,
2013-09-12 16:23:00,86.0,70.9,29.83,South,186,6.0,10.0,61,0.00,,,0.00,0490,Weather View 32 v70,2013-09-12 20:23:00,
2013-09-12 16:28:00,85.0,69.5,29.83,ESE,118,6.0,10.0,60,0.00,,,0.00,0480,Weather View 32 v70,2013-09-12 20:28:00,
2013-09-12 16:33:00,86.0,71.4,29.83,SSW,208,3.0,10.0,62,0.00,,,0.00,0480,Weather View 32 v70,2013-09-12 20:33:00,
2013-09-12 16:38:00,86.0,70.9,29.83,ESE,118,3.0,10.0,61,0.00,,,0.00,0470,Weather View 32 v70,2013-09-12 20:38:00,
2013-09-12 16:43:00,85.0,69.5,29.83,ESE,118,4.0,10.0,60,0.00,,,0.00,0460,Weather View 32 v70,2013-09-12 20:43:00,
2013-09-12 16:48:00,85.0,69.5,29.83,SSW,208,5.0,10.0,60,0.00,,,0.00,0450,Weather View 32 v70,2013-09-12 20:48:00,
2013-09-12 16:53:00,85.0,70.0,29.83,SE,141,6.0,10.0,61,0.00,,,0.00,0430,Weather View 32 v70,2013-09-12 20:53:00,
2013-09-12 16:58:00,85.0,70.0,29.82,ESE,118,5.0,10.0,61,0.00,,,0.00,0420,Weather View 32 v70,2013-09-12 20:58:00,
2013-09-12 17:03:00,86.0,70.9,29.82,ESE,118,3.0,10.0,61,0.00,,,0.00,0410,Weather View 32 v70,2013-09-12 21:03:00,
2013-09-12 17:08:00,85.0,69.5,29.82,ESE,118,3.0,10.0,60,0.00,,,0.00,0400,Weather View 32 v70,2013-09-12 21:08:00,
2013-09-12 17:13:00,85.0,69.5,29.82,East,96,4.0,10.0,60,0.00,,,0.00,0390,Weather View 32 v70,2013-09-12 21:13:00,
2013-09-12 17:18:00,85.0,70.0,29.82,SSE,163,6.0,10.0,61,0.00,,,0.00,0380,Weather View 32 v70,2013-09-12 21:18:00,
2013-09-12 17:23:00,85.0,70.0,29.82,ESE,118,7.0,10.0,61,0.00,,,0.00,0370,Weather View 32 v70,2013-09-12 21:23:00,
2013-09-12 17:28:00,85.0,70.5,29.82,ESE,118,7.0,10.0,62,0.00,,,0.00,0360,Weather View 32 v70,2013-09-12 21:28:00,
2013-09-12 17:33:00,85.0,70.9,29.82,South,186,5.0,10.0,63,0.00,,,0.00,0350,Weather View 32 v70,2013-09-12 21:33:00,
2013-09-12 17:38:00,85.0,70.9,29.82,SSW,208,6.0,10.0,63,0.00,,,0.00,0330,Weather View 32 v70,2013-09-12 21:38:00,
2013-09-12 17:43:00,84.0,70.0,29.82,ESE,118,7.0,10.0,63,0.00,,,0.00,0320,Weather View 32 v70,2013-09-12 21:43:00,
2013-09-12 17:48:00,85.0,70.9,29.82,SSW,208,3.0,10.0,63,0.00,,,0.00,0310,Weather View 32 v70,2013-09-12 21:48:00,
2013-09-12 17:53:00,85.0,71.9,29.81,ESE,118,4.0,10.0,65,0.00,,,0.00,0300,Weather View 32 v70,2013-09-12 21:53:00,
2013-09-12 17:58:00,84.0,70.9,29.82,SW,231,4.0,10.0,65,0.00,,,0.00,0280,Weather View 32 v70,2013-09-12 21:58:00,
2013-09-12 18:03:00,85.0,72.8,29.82,SE,141,3.0,10.0,67,0.00,,,0.00,0270,Weather View 32 v70,2013-09-12 22:03:00,
2013-09-12 18:08:00,84.0,71.8,29.81,SSE,163,5.0,10.0,67,0.00,,,0.00,0250,Weather View 32 v70,2013-09-12 22:08:00,
2013-09-12 18:13:00,84.0,72.7,29.81,South,186,2.0,9.0,69,0.00,,,0.00,0240,Weather View 32 v70,2013-09-12 22:13:00,
2013-09-12 18:18:00,84.0,73.1,29.81,South,186,5.0,9.0,70,0.00,,,0.00,0230,Weather View 32 v70,2013-09-12 22:18:00,
2013-09-12 18:23:00,84.0,73.1,29.81,South,186,6.0,8.0,70,0.00,,,0.00,0210,Weather View 32 v70,2013-09-12 22:23:00,
2013-09-12 18:28:00,84.0,73.5,29.81,SSW,208,3.0,8.0,71,0.00,,,0.00,0200,Weather View 32 v70,2013-09-12 22:28:00,
2013-09-12 18:33:00,83.0,73.0,29.81,SSW,208,5.0,8.0,72,0.00,,,0.00,0180,Weather View 32 v70,2013-09-12 22:33:00,
2013-09-12 18:38:00,83.0,73.4,29.81,South,186,4.0,8.0,73,0.00,,,0.00,0170,Weather View 32 v70,2013-09-12 22:38:00,
2013-09-12 18:43:00,83.0,73.8,29.81,SW,231,1.0,8.0,74,0.00,,,0.00,0150,Weather View 32 v70,2013-09-12 22:43:00,
2013-09-12 18:48:00,83.0,73.8,29.81,South,186,5.0,8.0,74,0.00,,,0.00,0130,Weather View 32 v70,2013-09-12 22:48:00,
2013-09-12 18:53:00,83.0,74.2,29.81,SSW,208,4.0,8.0,75,0.00,,,0.00,0110,Weather View 32 v70,2013-09-12 22:53:00,
2013-09-12 18:58:00,82.0,73.3,29.81,SSW,208,3.0,8.0,75,0.00,,,0.00,0100,Weather View 32 v70,2013-09-12 22:58:00,
2013-09-12 19:03:00,82.0,73.7,29.81,South,186,5.0,8.0,76,0.00,,,0.00,0090,Weather View 32 v70,2013-09-12 23:03:00,
2013-09-12 19:08:00,82.0,74.0,29.81,South,186,4.0,8.0,77,0.00,,,0.00,0060,Weather View 32 v70,2013-09-12 23:08:00,
2013-09-12 19:13:00,81.0,73.5,29.81,SSE,163,3.0,8.0,78,0.00,,,0.00,0020,Weather View 32 v70,2013-09-12 23:13:00,
2013-09-12 19:18:00,81.0,73.8,29.81,SSW,208,5.0,8.0,79,0.00,,,0.00,0010,Weather View 32 v70,2013-09-12 23:18:00,
2013-09-12 19:23:00,81.0,74.2,29.81,SSW,208,3.0,8.0,80,0.00,,,0.00,0010,Weather View 32 v70,2013-09-12 23:23:00,
2013-09-12 19:28:00,81.0,74.2,29.81,SSW,208,3.0,8.0,80,0.00,,,0.00,0000,Weather View 32 v70,2013-09-12 23:28:00,
2013-09-12 19:33:00,80.0,73.6,29.81,SSW,208,3.0,8.0,81,0.00,,,0.00,0000,Weather View 32 v70,2013-09-12 23:33:00,
2013-09-12 19:38:00,80.0,73.6,29.80,SSW,208,2.0,8.0,81,0.00,,,0.00,0000,Weather View 32 v70,2013-09-12 23:38:00,
2013-09-12 19:43:00,80.0,74.0,29.80,SSW,208,3.0,7.0,82,0.00,,,0.00,0000,Weather View 32 v70,2013-09-12 23:43:00,
2013-09-12 19:48:00,80.0,74.3,29.80,SSW,208,3.0,7.0,83,0.00,,,0.00,0000,Weather View 32 v70,2013-09-12 23:48:00,
2013-09-12 19:53:00,80.0,74.3,29.80,SSW,208,3.0,7.0,83,0.00,,,0.00,0000,Weather View 32 v70,2013-09-12 23:53:00,
2013-09-12 19:58:00,79.0,73.7,29.80,SSW,208,3.0,7.0,84,0.00,,,0.00,0000,Weather View 32 v70,2013-09-12 23:58:00,
2013-09-12 20:03:00,79.0,73.7,29.80,SSW,208,2.0,7.0,84,0.00,,,0.00,0000,Weather View 32 v70,2013-09-13 00:03:00,
2013-09-12 20:08:00,79.0,74.1,29.81,South,186,3.0,7.0,85,0.00,,,0.00,0000,Weather View 32 v70,2013-09-13 00:08:00,
2013-09-12 20:13:00,79.0,74.4,29.81,SSW,208,4.0,7.0,86,0.00,,,0.00,0000,Weather View 32 v70,2013-09-13 00:13:00,
2013-09-12 20:18:00,79.0,74.4,29.81,South,186,3.0,6.0,86,0.00,,,0.00,0000,Weather View 32 v70,2013-09-13 00:18:00,
2013-09-12 20:23:00,79.0,74.4,29.81,South,186,3.0,6.0,86,0.00,,,0.00,0000,Weather View 32 v70,2013-09-13 00:23:00,
2013-09-12 20:28:00,79.0,74.4,29.81,SSW,208,3.0,5.0,86,0.00,,,0.00,0000,Weather View 32 v70,2013-09-13 00:28:00,
2013-09-12 20:33:00,79.0,74.4,29.82,SSW,208,3.0,5.0,86,0.00,,,0.00,0000,Weather View 32 v70,2013-09-13 00:33:00,
2013-09-12 20:38:00,79.0,74.4,29.82,South,186,3.0,5.0,86,0.00,,,0.00,0000,Weather View 32 v70,2013-09-13 00:38:00,
2013-09-12 20:43:00,79.0,74.4,29.82,SSW,208,3.0,5.0,86,0.00,,,0.00,0000,Weather View 32 v70,2013-09-13 00:43:00,
2013-09-12 20:48:00,79.0,74.8,29.82,SSW,208,3.0,5.0,87,0.00,,,0.00,0000,Weather View 32 v70,2013-09-13 00:48:00,
2013-09-12 20:53:00,78.0,73.8,29.82,SSW,208,2.0,5.0,87,0.00,,,0.00,0000,Weather View 32 v70,2013-09-13 00:53:00,
2013-09-12 20:58:00,78.0,73.8,29.82,SSW,208,2.0,5.0,87,0.00,,,0.00,0000,Weather View 32 v70,2013-09-13 00:58:00,
2013-09-12 21:03:00,78.0,73.8,29.82,SSW,208,1.0,5.0,87,0.00,,,0.00,0000,Weather View 32 v70,2013-09-13 01:03:00,
2013-09-12 21:08:00,78.0,74.1,29.82,South,186,3.0,5.0,88,0.00,,,0.00,0000,Weather View 32 v70,2013-09-13 01:08:00,
2013-09-12 21:13:00,78.0,74.1,29.82,SSW,208,3.0,5.0,88,0.00,,,0.00,0000,Weather View 32 v70,2013-09-13 01:13:00,
2013-09-12 21:18:00,78.0,74.1,29.83,SSW,208,2.0,5.0,88,0.00,,,0.00,0000,Weather View 32 v70,2013-09-13 01:18:00,
2013-09-12 21:23:00,78.0,74.1,29.83,SW,231,3.0,4.0,88,0.00,,,0.00,0000,Weather View 32 v70,2013-09-13 01:23:00,
2013-09-12 21:28:00,78.0,74.5,29.83,SSW,208,3.0,4.0,89,0.00,,,0.00,0000,Weather View 32 v70,2013-09-13 01:28:00,
2013-09-12 21:33:00,78.0,74.5,29.83,SSW,208,3.0,5.0,89,0.00,,,0.00,0000,Weather View 32 v70,2013-09-13 01:33:00,
2013-09-12 21:38:00,78.0,74.5,29.83,SSW,208,3.0,5.0,89,0.00,,,0.00,0000,Weather View 32 v70,2013-09-13 01:38:00,
2013-09-12 21:43:00,78.0,74.1,29.82,SSW,208,3.0,5.0,88,0.00,,,0.00,0000,Weather View 32 v70,2013-09-13 01:43:00,
2013-09-12 21:48:00,78.0,74.1,29.83,South,186,3.0,5.0,88,0.00,,,0.00,0000,Weather View 32 v70,2013-09-13 01:48:00,
2013-09-12 21:53:00,78.0,74.1,29.83,South,186,3.0,5.0,88,0.00,,,0.00,0000,Weather View 32 v70,2013-09-13 01:53:00,
2013-09-12 21:58:00,78.0,74.5,29.82,SSW,208,3.0,5.0,89,0.00,,,0.00,0000,Weather View 32 v70,2013-09-13 01:58:00,
2013-09-12 22:03:00,78.0,74.5,29.82,SW,231,2.0,5.0,89,0.00,,,0.00,0000,Weather View 32 v70,2013-09-13 02:03:00,
2013-09-12 22:08:00,78.0,74.5,29.83,SW,231,2.0,5.0,89,0.00,,,0.00,0000,Weather View 32 v70,2013-09-13 02:08:00,
2013-09-12 22:13:00,78.0,74.5,29.83,SSW,208,3.0,5.0,89,0.00,,,0.00,0000,Weather View 32 v70,2013-09-13 02:13:00,
2013-09-12 22:18:00,78.0,74.5,29.83,SSW,208,2.0,5.0,89,0.00,,,0.00,0000,Weather View 32 v70,2013-09-13 02:18:00,
2013-09-12 22:23:00,78.0,74.5,29.83,SW,231,2.0,5.0,89,0.00,,,0.00,0000,Weather View 32 v70,2013-09-13 02:23:00,
2013-09-12 22:28:00,78.0,74.5,29.83,SW,231,3.0,5.0,89,0.00,,,0.00,0000,Weather View 32 v70,2013-09-13 02:28:00,
2013-09-12 22:33:00,78.0,74.5,29.83,SSW,208,3.0,5.0,89,0.00,,,0.00,0000,Weather View 32 v70,2013-09-13 02:33:00,
2013-09-12 22:38:00,78.0,74.5,29.83,WSW,253,3.0,5.0,89,0.00,,,0.00,0000,Weather View 32 v70,2013-09-13 02:38:00,
2013-09-12 22:43:00,78.0,74.5,29.83,South,186,1.0,5.0,89,0.00,,,0.00,0000,Weather View 32 v70,2013-09-13 02:43:00,
2013-09-12 22:48:00,77.0,73.5,29.83,SSW,208,1.0,5.0,89,0.00,,,0.00,0000,Weather View 32 v70,2013-09-13 02:48:00,
2013-09-12 22:53:00,77.0,73.8,29.83,SW,231,1.0,5.0,90,0.00,,,0.00,0000,Weather View 32 v70,2013-09-13 02:53:00,
2013-09-12 22:58:00,77.0,73.8,29.82,SSW,208,1.0,5.0,90,0.00,,,0.00,0000,Weather View 32 v70,2013-09-13 02:58:00,
2013-09-12 23:03:00,77.0,73.8,29.82,SW,231,2.0,5.0,90,0.00,,,0.00,0000,Weather View 32 v70,2013-09-13 03:03:00,
2013-09-12 23:08:00,77.0,74.2,29.82,WSW,253,3.0,5.0,91,0.00,,,0.00,0000,Weather View 32 v70,2013-09-13 03:08:00,
2013-09-12 23:13:00,77.0,74.2,29.82,South,186,3.0,5.0,91,0.00,,,0.00,0000,Weather View 32 v70,2013-09-13 03:13:00,
2013-09-12 23:18:00,77.0,74.2,29.82,SW,231,2.0,5.0,91,0.00,,,0.00,0000,Weather View 32 v70,2013-09-13 03:18:00,
2013-09-12 23:23:00,77.0,74.2,29.82,SSW,208,2.0,5.0,91,0.00,,,0.00,0000,Weather View 32 v70,2013-09-13 03:23:00,
2013-09-12 23:28:00,77.0,74.5,29.82,SW,231,3.0,5.0,92,0.00,,,0.00,0000,Weather View 32 v70,2013-09-13 03:28:00,
2013-09-12 23:33:00,77.0,74.5,29.82,WSW,253,3.0,5.0,92,0.00,,,0.00,0000,Weather View 32 v70,2013-09-13 03:33:00,
2013-09-12 23:38:00,77.0,74.5,29.82,West,276,2.0,5.0,92,0.00,,,0.00,0000,Weather View 32 v70,2013-09-13 03:38:00,
2013-09-12 23:43:00,77.0,74.5,29.82,SSW,208,2.0,5.0,92,0.00,,,0.00,0000,Weather View 32 v70,2013-09-13 03:43:00,
2013-09-12 23:48:00,77.0,74.8,29.82,SW,231,4.0,5.0,93,0.00,,,0.00,0000,Weather View 32 v70,2013-09-13 03:48:00,
2013-09-12 23:53:00,77.0,74.8,29.82,SW,231,3.0,5.0,93,0.00,,,0.00,0000,Weather View 32 v70,2013-09-13 03:53:00,
2013-09-12 23:58:00,78.0,75.8,29.82,West,276,5.0,5.0,93,0.00,,,0.00,0000,Weather View 32 v70,2013-09-13 03:58:00,